| time (UTC) | temp C | wind direction | speed KPH | gust KPH | rain 1hr cm | rain 24hr cm | rain mn cm | humidity % | barometer mb |
| 20260505063029 | 13 | 310 | 4.8 | 11.3 | 0.00 | 0.28 | 0.00 | 49 | 1002.7 |
| 20260505061536 | 13 | 321 | 3.2 | 9.7 | 0.00 | 0.28 | 0.00 | 50 | 1002.6 |
| 20260505060026 | 14 | 355 | 0.0 | 6.4 | 0.00 | 0.28 | 0.00 | 50 | 1002.6 |
| 20260505054533 | 14 | 347 | 1.6 | 12.9 | 0.00 | 0.28 | 0.00 | 50 | 1002.6 |
| 20260505053028 | 14 | 10 | 3.2 | 9.7 | 0.00 | 0.28 | 0.00 | 49 | 1002.5 |
| 20260505051524 | 15 | 49 | 0.0 | 12.9 | 0.00 | 0.28 | 0.00 | 49 | 1002.6 |
| 20260505041529 | 16 | 336 | 1.6 | 6.4 | 0.00 | 0.28 | 0.28 | 63 | 1001.5 |
| 20260505040021 | 16 | 339 | 0.0 | 4.8 | 0.00 | 0.28 | 0.28 | 66 | 1001.2 |
| 20260505034522 | 16 | 340 | 0.0 | 6.4 | 0.00 | 0.28 | 0.28 | 71 | 1001.3 |
| 20260505033019 | 16 | 302 | 0.0 | 6.4 | 0.00 | 0.28 | 0.28 | 74 | 1001.3 |
| 20260505031531 | 17 | 211 | 1.6 | 9.7 | 0.00 | 0.28 | 0.28 | 72 | 1001.0 |
| 20260505030014 | 17 | 242 | 0.0 | 9.7 | 0.00 | 0.28 | 0.28 | 69 | 1000.9 |
| 20260505024514 | 18 | 213 | 3.2 | 12.9 | 0.00 | 0.28 | 0.28 | 66 | 1000.7 |
| 20260505023014 | 18 | 199 | 3.2 | 11.3 | 0.00 | 0.28 | 0.28 | 65 | 1000.1 |
| 20260505021513 | 17 | 190 | 4.8 | 12.9 | 0.00 | 0.28 | 0.28 | 67 | 1000.2 |
| 20260505020013 | 17 | 182 | 3.2 | 8.0 | 0.00 | 0.28 | 0.28 | 69 | 999.4 |
| 20260505014513 | 16 | 238 | 3.2 | 8.0 | 0.03 | 0.28 | 0.28 | 70 | 998.9 |
| 20260505013012 | 16 | 176 | 6.4 | 14.5 | 0.03 | 0.28 | 0.28 | 72 | 998.9 |
| 20260505011512 | 17 | 190 | 8.0 | 19.3 | 0.03 | 0.28 | 0.28 | 72 | 998.6 |
| 20260505010011 | 17 | 183 | 6.4 | 27.4 | 0.03 | 0.28 | 0.28 | 73 | 998.9 |
| 20260505004510 | 16 | 193 | 6.4 | 22.5 | 0.00 | 0.25 | 0.25 | 75 | 998.8 |
| 20260505003010 | 16 | 203 | 3.2 | 12.9 | 0.08 | 0.25 | 0.25 | 77 | 998.9 |
| 20260505001510 | 16 | 228 | 3.2 | 6.4 | 0.25 | 0.25 | 0.25 | 79 | 998.3 |
| 20260505000011 | 16 | 196 | 1.6 | 6.4 | 0.25 | 0.25 | 0.25 | 81 | 997.8 |
| 20260504234510 | 17 | 194 | 3.2 | 17.7 | 0.25 | 0.25 | 0.25 | 76 | 998.1 |
| 20260504233008 | 19 | 195 | 8.0 | 19.3 | 0.18 | 0.18 | 0.18 | 68 | 998.2 |
| 20260504231506 | 22 | 360 | 1.6 | 8.0 | 0.00 | 0.00 | 0.00 | 49 | 998.2 |
| 20260504230005 | 23 | 339 | 1.6 | 20.9 | 0.00 | 0.00 | 0.00 | 47 | 997.6 |
| 20260504224504 | 23 | 185 | 3.2 | 24.1 | 0.00 | 0.00 | 0.00 | 45 | 997.7 |
| 20260504223005 | 25 | 223 | 4.8 | 11.3 | 0.00 | 0.00 | 0.00 | 44 | 997.6 |
| 20260504221501 | 24 | 177 | 4.8 | 17.7 | 0.00 | 0.00 | 0.00 | 45 | 997.7 |
| 20260504220059 | 23 | 227 | 9.7 | 25.7 | 0.00 | 0.00 | 0.00 | 48 | 997.9 |
| 20260504214557 | 23 | 199 | 11.3 | 25.7 | 0.00 | 0.00 | 0.00 | 48 | 998.3 |
| 20260504213105 | 25 | 194 | 8.0 | 19.3 | 0.00 | 0.00 | 0.00 | 43 | 998.2 |
| 20260504211559 | 25 | 235 | 0.0 | 16.1 | 0.00 | 0.00 | 0.00 | 45 | 998.3 |
| 20260504210058 | 26 | 194 | 3.2 | 16.1 | 0.00 | 0.00 | 0.00 | 38 | 998.3 |
| 20260504204554 | 26 | 184 | 8.0 | 25.7 | 0.00 | 0.00 | 0.00 | 36 | 998.5 |
| 20260504203106 | 26 | 211 | 4.8 | 14.5 | 0.00 | 0.00 | 0.00 | 37 | 998.6 |
| 20260504201555 | 27 | 213 | 12.9 | 24.1 | 0.00 | 0.00 | 0.00 | 35 | 998.8 |
| 20260504200046 | 26 | 182 | 6.4 | 16.1 | 0.00 | 0.00 | 0.00 | 38 | 999.0 |
| 20260504194544 | 26 | 332 | 6.4 | 24.1 | 0.00 | 0.00 | 0.00 | 37 | 999.1 |
| 20260504193043 | 26 | 207 | 9.7 | 20.9 | 0.00 | 0.00 | 0.00 | 37 | 999.2 |
| 20260504191541 | 26 | 188 | 8.0 | 24.1 | 0.00 | 0.00 | 0.00 | 39 | 999.5 |
| 20260504190044 | 26 | 182 | 9.7 | 19.3 | 0.00 | 0.00 | 0.00 | 38 | 999.6 |
| 20260504184536 | 26 | 191 | 6.4 | 20.9 | 0.00 | 0.00 | 0.00 | 38 | 999.7 |
| 20260504183034 | 26 | 84 | 8.0 | 19.3 | 0.00 | 0.00 | 0.00 | 36 | 999.8 |
| 20260504181541 | 26 | 211 | 8.0 | 20.9 | 0.00 | 0.00 | 0.00 | 35 | 1000.0 |
| 20260504180030 | 25 | 178 | 3.2 | 17.7 | 0.00 | 0.00 | 0.00 | 34 | 1000.1 |
| 20260504174527 | 25 | 315 | 6.4 | 27.4 | 0.00 | 0.00 | 0.00 | 37 | 1000.2 |
| 20260504173024 | 24 | 196 | 6.4 | 19.3 | 0.00 | 0.00 | 0.00 | 39 | 1000.5 |
| 20260504171522 | 24 | 218 | 4.8 | 16.1 | 0.00 | 0.00 | 0.00 | 40 | 1000.7 |
| 20260504090114 | 11 | 217 | 0.0 | 9.7 | 0.00 | 0.15 | 0.00 | 72 | 1004.7 |
| 20260504081559 | 11 | 231 | 1.6 | 12.9 | 0.00 | 0.15 | 0.00 | 73 | 1004.4 |